作者查詢 / RobertLucas
作者 RobertLucas 在 PTT 全部看板的留言(推文), 共2143則
限定看板:全部
看板排序:
全部StarCraft526NBA292Mariners260Orl-Magic222Baseball137NFL135MLB134Tennis99FORMULA145Spain_PL38Road_Running30NY-Yankees26PlayStation19AfterPhD17Gossiping8Hunter8Kings8ONE_PIECE8MiamiHeat7PHX-Suns6SHAQ6Mavericks5PACERS5RedSox5feminine_sex4Hawks4Isayama4Raptors4DevinHarris3Grizzlies3NCAA3NTNU-HISBK3Rockets3Seattle3YAO3Android2Angels2Bucks2Cavaliers2ChicagoBulls2CultureShock2DET_Tigers2Economics2eSports2Hornets2Knicks2Koei2LeBronJames2NBA_Fantasy2Paradox2Thunder2UTAH-JAZZ2ASHS-93-li1Athletics1Cardinals1Celtics1ChungLi1CMWang1Fantasy1HCSHch13_3111Indians1JasonKidd1JinYong1KNU1Lakers1MLB_Jersey1PCSH91_3051Penny_11Policy1Rangers1RayAllen1RealPlaying1SCU-ECG-981sex1Spurs1SYSOP1TA_AN1TigerBlue1<< 收起看板(78)
232F推: 金塊少了Gordon 灰狼少了…05/01 12:26
1087F推: 拖久一點,繼續讓主場觀眾享受晉級的爽感05/01 12:19
1215F→: 賽末會打一場架嗎 兩隊仇恨這麼高05/01 12:21
1329F→: 上籃呀05/01 12:22
584F推: Carter 的防守真好04/22 09:46
592F→: 罰球太慘04/22 09:47
602F→: 這摸毛犯規04/22 09:48
660F推: 兩邊都累了嗎04/22 09:57
669F→: Harper 老人球好強04/22 09:58
697F推: 兩邊都在體能球 飛來飛去然後都沒進04/22 10:05
718F→: 這個And 1 太虧了 守住一波結果多失一分04/22 10:06
737F→: 馬刺團隊防守還是不錯的 靠快攻反擊還可以勉強得分04/22 10:09
762F推: 沒人理Barnes T_T04/22 10:11
792F→: 哈波不要也傷吧04/22 10:12
807F→: 馬刺這場完還剩幾個能打04/22 10:13
834F→: 感覺雷霆穩穩的 馬刺這系列打完剩半條命04/22 10:14
942F推: 馬刺打陣地戰時的進攻 沒班馬就不太行了04/22 10:25
1026F推: 馬刺的進攻…04/22 10:32
1184F推: 被抓到弱點了 罰球04/22 10:36
1047F推: 班馬快被打死了還沒哨 這到西決時要怎麼玩?04/20 11:16
288F推: 省球一哥04/16 10:30
347F推: 帕黑球來就揮04/16 10:35
382F推: 新來的DH好強 呵04/16 10:37
520F推: 難怪不要大谷打擊04/16 10:39
850F推: 被大谷帶風向04/16 10:52
989F→: 兩人相視一笑04/16 10:53
1078F推: 手套都丟了 小喇叭還要上嗎 熱好身都冷了 XD04/16 12:33
1171F→: 小喇叭都冷了吧04/16 12:34
1217F推: 影帝好人04/16 12:36
1255F→: 小喇叭被自己隊的打線打下來了04/16 12:38
1284F→: 新同學有 97mile04/16 12:39
1312F→: 感覺制服太小04/16 12:40
1331F→: 一投變化球就被打出安打04/16 12:41
1350F→: 果然要這時上 還有6分可以玩04/16 12:42
1376F→: 果然就速球一直塞就好04/16 12:44
1410F推: 差點出去04/16 12:46
1433F→: 傷害哥加油 感覺已經在喘04/16 12:47
1480F推: 大都會真的慘 三場共得三分04/16 12:50
254F推: 山本:前四棒唯一不挺我的就是…04/15 10:24
1031F推: 喇叭會上嗎?04/15 12:07
96F推: 終於一個出局 這局好漫長04/15 08:47
115F推: 今天的天使沒有極限04/15 09:16
129F推: 主要是第一局第一個打者,不想這麼快用掉挑戰04/02 08:31
136F→: 不然大谷這次有二球都可以挑戰成功04/02 08:31
308F推: HR 的話 有沒有被盜都是兩分04/02 08:48
319F→: 只是山本心情可能有點被影響了…04/02 08:49
250F推: 這局兩球守的不錯03/27 08:49
1215F推: 自由人要開張了吧!!03/27 11:04
1247F→: 自由人獨自難過的一天03/27 11:05
8F→: 其實 Drake才第二年 大家不要太苛責02/09 10:23
12F→: 今年海鷹對公羊雖贏了兩場 但對 Stafford真守不住02/09 10:24
24F→: 但Stafford是老經驗 見過大風大浪的 Maye還年輕02/09 10:24
36F→: NE 這幸運守到 根本沒看到球 XD02/09 10:26
47F→: 沒JSN 要靠 Kupp 了02/09 10:27
64F→: !!! 第一個TD!!!!02/09 10:27
112F→: MacDonald的防守還是聯盟最佳02/09 10:29
131F→: 海鷹的防守是整個團隊的強 很難選 MVP02/09 10:31
144F→: Maye 是愛國者少主 不會有QB1爭議的02/09 10:32
155F→: 現在應該都會拼4檔吧02/09 10:34
157F→: 要打架了!!02/09 10:34
195F→: 氣來啦!02/09 10:35
227F→: 大家要的場面來啦~~~02/09 10:36
280F→: 傳說中的愛國者劇場要上演了嗎02/09 10:37
306F→: 海鷹上次對公羊也是領先多時就… 雖然最後有贏02/09 10:38
335F推: 差一些 XDD02/09 10:43
353F→: 又是個神Punt02/09 10:44
364F→: 大空檔…02/09 10:45
383F→: 差點被抄…02/09 10:46
394F→: Maye終於自己跑出FD了02/09 10:47
425F→: ..... 一直想拼大的 就會出事02/09 10:48
449F→: 沒辦法 一直短傳會出事 想拼大的也會出事02/09 10:48
484F→: Walker 專門的慢慢跑 現在非常有用 XD02/09 10:50
490F→: 應該是MVP了吧02/09 10:50
496F→: Walker跑累了嗎 自己跌02/09 10:51
500F→: Walker: 喘02/09 10:51
535F推: 剛才NE進攻是有些起色的 只要再激怒一下海鷹黃旗…02/09 10:54
544F→: 連 Kraft都想睡02/09 10:56
552F→: Kicker連防守都有貢獻 要搶MVP了吧02/09 10:56
576F→: 有過半場了!02/09 10:58
586F→: ............02/09 10:58
602F→: 防守組也想搶 MVP02/09 10:59
624F→: 這場 MVP 好難給… 防守組、特別組、Walker都行02/09 10:59
655F推: 現在是焦點是搶MVP 呵02/09 11:01
685F推: 海鷹現在中間的防守壓力也放鬆了 結果NE自己犯規02/09 11:04
699F→: Bad Bunny跑的碼數還比NE多 <- 這好笑02/09 11:05
701F→: Maye若可以拿到兩個TD 也算不錯了02/09 11:06
719F→: Maye 有兩個TD了~02/09 11:08
779F推: 耗時間中~02/09 11:12
787F→: 今年國聯跟美聯強度真的差很多02/09 11:13
799F→: 哈哈 Walker 想搶MVP 差一點02/09 11:14
814F→: MVP之戰02/09 11:16
826F→: 海鷹跟公羊果真是真Super Bowl02/09 11:17
836F→: 接下來看 WBC 了02/09 11:18
839F→: 又是個神 Punt02/09 11:19
854F→: Punter、Kicker、RB、Defense 都可以是MVP02/09 11:20
860F→: 海鷹防守組也開始場上放空了02/09 11:21
873F→: 慶祝啦~~~~02/09 11:22
896F→: 海鷹可以走出NE的陰影了02/09 11:24
918F推: Sam 真的很勵志 早年被黑的超慘02/09 11:26
932F推: Walker MVP的話應該很有趣 少見的RB得MVP02/09 11:28
936F→: 基本海鷹整場都掌握節奏 只有第四節一開始小亂流02/09 11:29
939F→: 目前鏡頭有給 Walker 和 Myers MVP熱門?02/09 11:30
950F推: 49人:為什麼我要分在國西…02/09 11:36
951F→: 49人也很強 對其他人都得分如吃飯 但被海鷹欺負02/09 11:37
957F→: Walker 在台上 MVP??02/09 11:39
966F推: K9 一直有傷痛問題 今年能健康打完 很不容易02/09 11:44